Regional Weather Roundup
Issued by NWS

Home | Current Version | Previous Version | Text Only | Print | Product List | Glossary Off
Versions: 1 2 3 4 5 6 7 8 9 10 11 12 13 14 15 16 17 18 19 20 21 22 23 24 25 26 27 28 29 30 31 32 33 34 35 36 37 38 39 40 41 42 43 44 45 46 47 48 49 50

000
ASUS45 KTFX 200619
RWRMT
MONTANA HOURLY WEATHER ROUNDUP
NATIONAL WEATHER SERVICE GREAT FALLS MT
1219 AM MDT MON OCT 20 2014

NOTE: "FAIR" INDICATES FEW OR NO CLOUDS BELOW 12000 FEET WITH NO
SIGNIFICANT WEATHER AND/OR OBSTRUCTIONS TO VISIBILITY.

* THESE STATIONS ARE NOT UNDER NWS QUALITY CONTROL. THEY DO NOT
   REPORT WEATHER SUCH AS PRECIPITATION OR FOG.

MTZ001>007-043-200700-
WEST OF THE DIVIDE
CITY           SKY/WX    TMP DP  RH WIND       PRES   REMARKS
KALISPELL      CLEAR     36  34  92 NW3       29.88F
MISSOULA       CLEAR     45  39  80 E7        29.93R
BUTTE          CLEAR     34  27  76 CALM      30.04S
MULLAN PASS    CLEAR     50  32  50 S7        29.96F
* ESSEX        N/A       42  36  79 SE3        N/A
* LINCOLN      N/A       33  30  89 N/A        N/A
* POLSON       N/A       47  39  74 SE1        N/A
* RONAN APT    CLEAR     37  36  96 N/A        N/A
* SEELEY LAKE  N/A       33  31  92 NE2        N/A
* THOMP F APT  CLEAR     50  15  25 N4         N/A
$$

MTZ008-052>055-200700-
SOUTHWEST MONTANA
CITY           SKY/WX    TMP DP  RH WIND       PRES   REMARKS
BOZEMAN        CLEAR     36  30  79 E5        30.01R WCI  32
DILLON         CLEAR     45  27  49 S12       30.03R
W YELLOWSTONE  CLEAR     27  21  78 CALM      30.17R
* THREE FORKS  CLEAR     36  36 100 N/A        N/A
* BOULDER HILL N/A       46  26  46 S9         N/A
* MONIDA PASS  N/A       40  22  49 SW1        N/A
* RAYNOLDS PAS N/A       38  24  57 S3G11      N/A
* WHITEHALL    N/A       40  28  62 N5         N/A   WCI  36
* WISE RIVER   N/A       37  26  64 SW2G7      N/A
$$

MTZ009>010-012-014-046-048-049-054-200700-
EAST SLOPES AND CENTRAL MONTANA
CITY           SKY/WX    TMP DP  RH WIND       PRES   REMARKS
CUT BANK       PTCLDY    52  28  40 SW7       29.87F
GREAT FALLS    CLEAR     55  28  35 S12       29.90S
HELENA         CLEAR     46  36  68 CALM      29.95R
MALMSTROM AFB  CLEAR     45  32  60 SE6       29.91F
* CONRAD       CLEAR     37  30  76 N/A        N/A
* DEARBORN     N/A       44  36  74 S2         N/A
* EAST GLACIER N/A       55  31  40 W19G28     N/A
* MONARCH      N/A       50  23  35 S10G15     N/A
* PENDROY      N/A       54  30  40 S6         N/A
* ROGERS PASS  N/A       51  30  45 NW7        N/A
* SAINT MARY   N/A       59  31  35 S5G14      N/A
* SWEET GRASS  N/A       56  30  37 SW14G19    N/A
* WHITE SULPH  N/A       45  25  45 NE11G17    N/A
$$

MTZ011-013-016-021-035-040-045-047-050-051-200700-
NORTH CENTRAL MONTANA
CITY           SKY/WX    TMP DP  RH WIND       PRES   REMARKS
HAVRE          CLEAR     39  36  89 W5        29.85F WCI  35
LEWISTOWN      CLEAR     43  30  60 SE6       29.95F
* CHINOOK      CLEAR     48  41  77 E8        29.85F
* FORT BENTON  CLEAR     50  32  50 CALM      29.88F
* CHESTER      N/A       47  36  66 SE1        N/A
* DENTON       N/A       42  31  65 SW1        N/A
* GEYSER       N/A       41  29  62 SE4        N/A
* JUDITH GAP   N/A       43  33  68 S4         N/A
* LOMA         N/A       54  40  59 NE2        N/A
$$

MTZ017>020-022>027-061-062-200700-
NORTHEAST MONTANA
CITY           SKY/WX    TMP DP  RH WIND       PRES   REMARKS
GLASGOW        CLEAR     46  37  71 E15       29.92F
GLENDIVE       CLEAR     45  36  71 S3        30.01S
JORDAN         CLEAR     55  37  51 VRB3      29.94S
SIDNEY         CLEAR     39  34  82 CALM      30.01S
WOLF POINT     PTCLDY    41  36  82 NE3       29.96F
* BEAVER HILL  N/A       49  36  61 SE12       N/A
* CIRCLE       N/A       53  39  59 N/A        N/A
* LINDSAY DVD  N/A       48  36  63 SE2        N/A
* NAVAJO       N/A       48  37  66 S9         N/A
$$

MTZ028>042-056>058-200700-
SOUTHCENTRAL AND SOUTHEAST MONTANA
CITY           SKY/WX    TMP DP  RH WIND       PRES   REMARKS
BAKER          CLEAR     45  34  65 SE8       30.03F
BILLINGS       CLEAR     54  36  51 SW9       29.97F
LIVINGSTON     CLEAR     43  30  60 VRB3      30.01R
MILES CITY     CLEAR     52  37  57 SE12      29.98F
* LAUREL APT   CLEAR     50  30  46 N/A        N/A
* ROUNDUP APT  CLEAR     46  30  54 W5         N/A
* ALZADA       N/A       46  38  74 E6         N/A
* HYSHAM       N/A       65  30  27 SW5G13     N/A
* LAME DEER    N/A       57  35  44 S11G17     N/A
* REED POINT   N/A       38  32  79 N/A        N/A
* ROSCOE HILL  N/A       55  20  25 S8         N/A
$$

REGIONAL REPORTS...DAKOTAS
CITY           SKY/WX    TMP DP  RH WIND       PRES   REMARKS
WILLISTON      CLEAR     39  36  89 CALM      29.99S
DICKINSON      PTCLDY    41  34  76 S9        30.02S
BEACH          N/A       41  37  86 SE8       30.03F
CROSBY         CLEAR     45  39  80 S10       29.98S
TIOGA          CLEAR     36  36 100 CALM      30.03S
BISMARCK       PTCLDY    39  36  89 CALM      30.03R
GRAND FORKS    CLEAR     41  36  82 W6        29.93R
FARGO          CLEAR     45  37  74 NW6       29.93R
BUFFALO SD     CLEAR     52  36  55 S7        29.99F
RAPID CITY     CLEAR     46  37  71 W5        30.09R
$$

REGIONAL REPORTS...WYOMING/IDAHO/WASHINGTON
CITY           SKY/WX    TMP DP  RH WIND       PRES   REMARKS
GILLETTE       PTCLDY    52  36  55 S14       30.06F
SHERIDAN       CLEAR     37  30  76 CALM      30.01F
CODY           CLEAR    N/A N/A N/A SW3       30.05F
YELLOWSTONE LA PTCLDY    28  19  69 NW3       30.24S
MULLAN PASS    CLEAR     50  32  50 S7        29.96S
SAND POINT     FOG       41  41 100 CALM      29.83F VSB 1/2
SPOKANE        CLEAR     54  46  74 NE7       29.78F
$$

REGIONAL REPORTS...ALBERTA
CITY           SKY/WX    TMP DP  RH WIND       PRES   REMARKS
CALGARY        FAIR      52  34  50 SW5       29.70F
LETHBRIDGE     CLEAR     45  36  71 S10       29.78F
MEDICINE HAT   CLEAR     59  39  48 S15G22    29.77F
EDMONTON       N/A       41  34  76 S9        29.59F
WATERTON GATE  N/A       57  34  42 SW12G22    N/A
CARDSTON       N/A       54  36  51 S6         N/A
MILK RIVER     N/A       41  32  70 W3         N/A
$$

REGIONAL REPORTS...SASKATCHEWAN
CITY           SKY/WX    TMP DP  RH WIND       PRES   REMARKS
SWIFT CURRENT  CLEAR     50  41  71 S17       29.84F
REGINA         N/A       39  36  89 SE6       29.94R WCI  35
VAL MARIE      N/A       45  39  80 W1         N/A
ASSINIBOIA     N/A       43  37  79 SE8        N/A

$$



USA.gov is the U.S. government's official web portal to all federal, state and local government web resources and services.